Weather History for Lamoni, IA

Change the Weather History Date:

Thursday, February 13, 2014

  Actual Average Record
Temperature  
Mean Temperature 33 °F 28 °F  
Max Temperature 44 °F 37 °F 61 °F (1967)
Min Temperature 22 °F 18 °F -3 °F (1986)
Degree Days  
Heating Degree Days 32 37  
Month to date heating degree days 712 504  
Since 1 July heating degree days 4693 4196  
Cooling Degree Days 0 0  
Month to date cooling degree days 0 0  
Year to date cooling degree days 0 0  
Moisture  
Dew Point 22 °F    
Average Humidity 72    
Maximum Humidity 88    
Minimum Humidity 55    
Precipitation  
Precipitation 0.00 in 0.05 in 0.95 in (1949)
Month to date precipitation 0.62 0.63  
Sea Level Pressure  
Sea Level Pressure 29.80 in    
Wind  
Wind Speed 11 mph (SW)    
Max Wind Speed 22 mph    
Max Gust Speed 27 mph    
Visibility 9 miles    
Events      
T = Trace of Precipitation, MM = Missing Value Source: NWS Daily Summary

Daily Weather History Graph

Daily Weather History Graph

Search for Another Location

Airport:

Trip Planner

Search our weather history database for the weather conditions in past years. The results will help you decide how hot, cold, wet, or windy it might be!

Date:

Astronomy

Feb. 13, 2014 Rise Set
Actual Time 7:11 AM CST 5:48 PM CST
Civil Twilight 6:43 AM CST 6:16 PM CST
Nautical Twilight 6:11 AM CST 6:48 PM CST
Astronomical Twilight 5:39 AM CST 7:20 PM CST
Moon 4:57 PM CST (2/13) 6:05 AM CST (2/13)
Length of Visible Light 11h 32m
Length of Day
10h 36m
Waxing Gibbous, 99% of the Moon is Illuminated
Feb 13
Waxing Gibbous
Feb 14
Full
Feb 22
Last Quarter
Mar 1
New
Mar 8
First Quarter

Hourly Weather History & Observations

Time (CST) Temp. Windchill Dew Point Humidity Pressure Visibility Wind Dir Wind Speed Gust Speed Precip Events Conditions
12:10 AM 21.9 °F 13.4 °F 17.1 °F 82% 29.91 in 9.0 mi SSW 6.9 mph - N/A   Overcast
12:53 AM 21.9 °F 12.5 °F 17.1 °F 82% 29.94 in 9.0 mi SSW 8.1 mph - N/A   Overcast
1:20 AM 23.0 °F 13.9 °F 17.1 °F 78% 29.89 in 9.0 mi SW 8.1 mph - N/A   Overcast
1:53 AM 23.0 °F 13.1 °F 17.1 °F 78% 29.92 in 9.0 mi SSW 9.2 mph - N/A   Overcast
2:53 AM 23.0 °F 13.9 °F 18.0 °F 81% 29.87 in 8.0 mi SSE 8.1 mph - N/A   Overcast
3:06 AM 23.0 °F 13.1 °F 18.0 °F 81% 29.81 in 8.0 mi South 9.2 mph - N/A   Overcast
3:50 AM 23.0 °F 11.7 °F 17.6 °F 80% 29.82 in 7.0 mi SW 11.5 mph - N/A   Overcast
3:53 AM 23.0 °F 11.1 °F 18.0 °F 81% 29.87 in 7.0 mi SW 12.7 mph - N/A   Overcast
4:20 AM 23.0 °F 10.6 °F 18.0 °F 81% 29.78 in 7.0 mi South 13.8 mph - N/A   Scattered Clouds
4:53 AM 23.0 °F 11.1 °F 19.0 °F 85% 29.85 in 7.0 mi SSW 12.7 mph - N/A   Mostly Cloudy
5:53 AM 23.0 °F 10.1 °F 19.0 °F 85% 29.83 in 6.0 mi SSW 15.0 mph - N/A   Partly Cloudy
6:53 AM 23.0 °F 8.7 °F 19.9 °F 88% 29.79 in 6.0 mi SSW 18.4 mph - N/A   Partly Cloudy
7:53 AM 24.1 °F 12.5 °F 19.9 °F 84% 29.80 in 4.0 mi SW 12.7 mph - N/A   Partly Cloudy
8:53 AM 27.0 °F 16.1 °F 21.9 °F 81% 29.79 in 6.0 mi SW 12.7 mph - N/A   Haze
9:53 AM 30.9 °F 20.2 °F 24.1 °F 76% 29.78 in 9.0 mi WSW 15.0 mph 24.2 mph N/A   Clear
10:53 AM 35.1 °F 26.4 °F 25.0 °F 67% 29.78 in 10.0 mi WSW 12.7 mph - N/A   Clear
11:53 AM 37.9 °F 30.5 °F 27.0 °F 65% 29.76 in 10.0 mi WSW 11.5 mph - N/A   Clear
12:53 PM 41.0 °F 35.2 °F 27.0 °F 57% 29.73 in 10.0 mi West 9.2 mph - N/A   Clear
1:53 PM 42.1 °F 34.5 °F 28.0 °F 58% 29.70 in 10.0 mi West 15.0 mph - N/A   Clear
2:53 PM 43.0 °F 35.4 °F 28.0 °F 56% 29.70 in 10.0 mi West 16.1 mph - N/A   Clear
3:53 PM 43.0 °F 35.4 °F 28.9 °F 58% 29.72 in 10.0 mi WSW 16.1 mph - N/A   Clear
4:53 PM 41.0 °F 33.9 °F 30.0 °F 65% 29.73 in 10.0 mi WSW 12.7 mph - N/A   Clear
5:53 PM 37.0 °F 31.6 °F 28.9 °F 73% 29.75 in 10.0 mi West 6.9 mph - N/A   Clear
6:53 PM 35.1 °F 31.0 °F 28.9 °F 78% 29.77 in 10.0 mi NW 4.6 mph - N/A   Clear
7:53 PM 33.1 °F 26.9 °F 26.1 °F 75% 29.78 in 10.0 mi WNW 6.9 mph - N/A   Clear
8:53 PM 32.0 °F 24.2 °F 23.0 °F 69% 29.79 in 10.0 mi North 9.2 mph - N/A   Clear
9:53 PM 28.9 °F 20.4 °F 19.9 °F 69% 29.78 in 10.0 mi North 9.2 mph - N/A   Clear
10:53 PM 26.1 °F 17.6 °F 18.0 °F 71% 29.77 in 10.0 mi NE 8.1 mph - N/A   Clear
11:53 PM 25.0 °F 16.3 °F 17.1 °F 72% 29.75 in 10.0 mi NE 8.1 mph - N/A   Mostly Cloudy